Tracking 17154 objects as of 1-August-2015
HD Live streaming from Space Station

GLOBALSTAR M059

Track GLOBALSTAR M059 now!
10-day predictions
GLOBALSTAR M059 is classified as:


NORAD ID: 25944
Int'l Code: 1999-058B
Perigee: 1,420.1 km
Apogee: 1,421.4 km
Inclination: 52.0 °
Period: 114.1 minutes
Semi major axis: 7791 km
RCS: 2.6566 m2 (large)
Launch date: October 18, 1999
Source: Globalstar (GLOB)
Your satellite tracking list
Your tracking list is empty





NASA's NSSDC Master Catalog

Two Line Element Set (TLE):
1 25944U 99058B   15213.49999206 -.00000118  00000-0 -78697-4 0  9998
2 25944 052.0061 323.2665 0000795 058.1237 020.5795 12.62265414728271

Source of the keplerian elements: AFSPC

N2YO: 208